Theta_e
315 317 319 317 315 312 316 318 315 316 316 315 315 316 316 315 315 315 323 327 329 331 334 336 338 340 341 335 335 334 336 335 334 331 328 328 328 328 329 335 340 338 336 337 336 329 325 325 323
318 319 317 308 313 313 314 313 317 316 315 314 315 315 315 317 314 319 324 328 329 332 332 335 336 336 337 337 334 335 337 336 334 332 330 329 329 329 330 336 337 336 337 335 335 327 324 323 322
318 317 311 309 309 313 314 313 314 314 314 315 315 314 314 315 315 320 324 328 328 332 333 333 335 335 335 341 341 339 339 337 335 333 331 330 333 333 331 332 335 338 336 334 334 330 324 322 320
317 312 307 309 314 312 313 313 312 315 314 313 313 315 311 314 315 321 325 327 328 331 334 333 334 335 335 338 340 340 339 337 336 334 331 334 337 335 332 332 333 334 335 332 332 331 326 322 316
312 306 310 313 314 313 312 314 313 315 314 313 313 315 312 314 321 321 321 323 325 327 333 334 333 334 335 339 341 340 338 336 336 335 333 337 336 333 330 331 333 333 331 330 328 329 327 322 311
311 306 310 312 314 312 313 312 313 312 311 312 314 312 311 315 318 320 321 321 324 327 330 334 333 333 336 340 340 339 339 338 338 336 335 337 334 333 332 330 330 331 330 328 327 326 324 318 303
311 307 311 312 313 314 314 308 313 312 312 313 312 313 311 313 314 316 322 323 325 330 333 334 335 333 333 336 339 338 337 337 337 335 335 336 335 335 333 332 329 325 329 328 326 325 323 314 300
307 307 313 312 312 314 313 311 312 312 313 309 311 310 311 310 314 316 321 323 325 327 329 333 334 335 335 335 336 336 337 336 337 336 334 335 335 335 335 334 332 328 325 326 324 323 321 309 300
307 307 309 314 311 314 312 313 311 309 310 309 309 311 308 309 314 316 316 317 317 320 325 328 332 335 336 337 337 337 337 336 336 337 334 334 333 335 334 335 332 330 327 323 323 323 319 307 300
307 305 308 311 312 314 313 313 312 312 310 311 310 309 307 307 307 306 304 305 306 308 311 320 327 332 334 337 341 339 338 337 337 336 334 333 332 332 331 333 332 330 327 324 324 322 318 309 301
312 309 311 314 312 313 313 313 311 312 312 311 311 306 302 303 303 302 302 302 302 304 307 308 313 325 331 334 336 341 341 339 337 334 334 333 333 333 330 331 331 329 328 326 325 322 318 313 303
316 314 312 315 313 313 314 312 313 311 311 307 302 302 301 300 300 299 300 301 302 304 305 308 309 310 323 331 334 339 335 334 335 333 332 334 335 334 332 331 331 330 328 327 325 324 320 315 308
316 314 312 312 311 311 311 311 312 310 308 302 302 301 299 299 299 299 299 300 301 304 306 309 311 311 311 324 332 336 337 336 332 332 333 332 333 331 329 329 331 330 329 327 325 324 322 317 313
311 311 310 309 310 310 311 310 311 308 302 302 301 299 298 298 297 298 298 298 301 304 309 312 314 315 313 317 328 332 332 335 335 334 332 333 334 332 331 328 327 329 329 327 326 324 322 319 315
310 312 308 309 309 310 308 312 310 307 304 302 300 298 298 297 297 296 297 298 299 304 309 315 318 320 316 320 327 331 332 333 333 332 332 332 332 332 332 329 328 328 329 328 326 323 322 321 318
311 308 310 310 310 310 310 313 311 305 305 302 300 297 297 297 296 296 296 297 300 303 308 315 319 322 324 326 327 328 329 329 328 328 329 329 329 328 328 328 327 326 326 326 326 324 321 319 317
306 311 309 310 310 310 310 312 310 305 304 302 300 298 298 296 295 295 296 297 299 302 307 312 315 320 321 323 324 324 325 325 324 325 325 324 323 324 324 324 323 322 321 321 320 317 316 316 315
311 309 309 310 311 310 310 309 307 307 306 302 299 297 297 296 294 294 295 296 298 300 303 307 313 313 317 319 318 316 316 315 315 315 316 319 320 320 320 319 318 318 318 317 316 316 315 314 312
308 309 311 310 309 311 310 309 309 308 302 300 298 298 296 295 294 294 294 295 296 299 301 305 308 310 314 314 310 308 302 305 307 307 309 309 310 312 313 312 312 312 312 311 312 312 312 311 309
309 310 309 308 308 310 309 309 307 307 305 302 299 297 296 294 293 293 293 294 294 295 296 299 303 305 307 308 304 301 300 299 299 300 302 303 304 304 305 305 305 307 307 305 304 305 306 305 304
308 309 309 310 310 309 309 309 308 304 303 300 299 297 295 294 293 291 292 292 294 295 295 296 298 301 302 303 303 303 300 297 296 294 295 295 297 298 298 298 299 300 300 300 301 301 300 300 300
309 307 309 310 312 315 309 313 309 306 304 301 298 296 294 293 292 291 291 291 291 292 294 295 297 298 298 299 300 299 294 289 287 288 289 289 290 291 291 292 293 293 294 295 295 296 298 299 297
311 309 309 310 310 309 309 310 308 305 306 302 299 296 294 293 292 291 290 290 290 291 291 291 292 293 293 294 295 293 289 287 287 287 287 286 286 286 286 286 286 286 286 287 289 292 293 293 294
306 308 308 306 307 310 310 310 309 307 308 303 299 296 295 293 292 291 290 289 288 289 289 289 289 289 290 290 289 288 287 286 286 285 285 285 285 285 285 285 285 285 285 285 285 285 285 286 287
307 309 314 315 312 315 308 308 310 307 304 303 301 297 294 293 291 290 289 289 288 288 287 287 287 286 287 287 286 286 285 285 285 285 285 285 285 284 284 284 284 284 284 284 283 284 284 283 284
307 310 315 317 314 314 308 313 312 302 299 298 299 296 294 292 291 290 290 289 288 288 287 287 287 286 286 286 285 285 285 285 285 284 284 284 284 283 283 283 283 283 283 283 283 283 283 283 283
308 310 309 312 296 307 313 311 304 301 300 298 296 295 294 292 291 290 291 290 288 288 288 287 286 286 285 285 285 285 285 285 285 284 284 284 284 283 283 283 283 283 283 282 282 282 282 282 282
309 307 312 309 313 314 314 312 314 306 303 298 297 296 294 293 292 291 291 291 289 288 287 287 287 286 285 285 286 285 285 285 285 285 284 284 283 283 283 283 282 282 282 281 281 281 281 281 281
311 312 311 310 311 315 310 313 304 305 301 299 298 297 295 294 293 291 292 292 290 289 287 286 286 286 285 285 285 285 285 285 285 284 284 283 282 282 282 281 281 281 280 280 280 280 280 280 281
308 310 311 315 313 307 311 315 302 303 300 299 298 297 295 293 292 292 293 292 290 289 288 287 286 286 285 285 285 285 284 284 284 284 284 283 282 281 281 280 280 279 279 279 278 278 278 278 278
Wind_Speed
7 6 4 5 4 5 1 1 1 3 2 1 1 2 2 2 3 2 4 12 2 13 23 24 22 20 18 15 13 11 9 8 6 6 6 5 6 6 6 5 8 5 5 8 7 7 6 5 5
7 4 4 3 5 4 4 4 1 1 1 2 2 2 4 1 1 6 2 9 0 12 20 24 22 21 19 16 14 11 9 7 6 5 4 4 3 3 4 6 3 2 6 5 5 6 5 4 4
4 5 4 4 4 4 3 3 2 3 2 2 2 2 3 2 2 2 4 6 3 9 17 22 22 21 19 16 14 14 12 9 7 6 5 4 3 3 3 4 3 6 4 2 4 4 4 4 4
3 6 4 5 2 1 1 2 3 3 3 4 0 2 4 1 1 3 2 2 3 5 13 18 22 21 20 18 16 14 13 10 8 7 6 5 5 3 3 3 3 1 1 5 4 5 5 6 6
6 3 4 4 3 3 3 2 1 2 1 2 2 2 4 2 2 2 2 1 0 3 10 13 20 22 20 18 17 16 14 12 10 8 7 8 8 4 3 3 4 2 4 5 4 6 6 6 6
4 3 5 2 2 3 3 2 1 1 1 3 2 2 3 4 1 1 2 1 1 3 8 12 17 21 20 19 19 18 16 13 11 10 9 11 8 6 5 2 5 5 3 3 4 5 7 6 5
6 4 4 4 1 1 1 5 2 1 3 2 1 3 3 5 5 2 1 1 2 2 5 9 13 19 21 22 21 20 17 15 13 12 11 11 9 8 7 4 4 4 5 5 5 5 8 7 3
5 4 3 1 1 1 2 3 2 2 1 5 1 2 3 4 9 1 0 2 3 3 5 8 11 14 19 21 21 21 19 17 15 13 12 12 10 11 11 8 6 4 4 6 4 5 8 6 3
3 4 2 4 6 2 1 3 1 1 1 4 3 0 7 13 7 3 3 4 4 4 5 8 11 13 16 18 20 20 19 18 15 15 14 13 13 11 13 11 8 6 5 6 6 7 8 6 4
4 3 6 3 2 2 2 1 4 4 5 2 4 5 16 14 14 14 14 14 14 12 6 8 11 14 16 18 17 19 20 19 18 17 15 14 14 12 14 13 12 8 6 6 7 8 10 7 5
2 3 3 3 4 1 1 1 1 2 3 2 5 6 12 17 19 18 16 16 16 14 11 8 10 15 18 19 19 18 18 18 18 17 17 16 15 15 14 14 13 11 10 8 10 12 12 10 7
1 3 4 3 0 2 2 0 2 4 2 4 7 5 5 9 12 15 15 16 18 16 15 12 10 11 18 20 19 18 17 17 17 18 18 18 17 15 14 14 14 12 10 10 12 14 14 12 10
2 2 1 4 5 6 2 4 4 7 4 9 10 11 9 9 13 13 15 15 18 18 17 15 13 11 10 20 20 17 14 12 12 14 18 17 16 15 15 14 15 14 13 12 12 14 14 13 12
0 3 7 7 3 3 4 1 2 2 6 9 9 8 7 11 15 16 21 20 20 19 20 18 14 11 9 12 17 14 10 7 7 8 10 13 16 17 16 16 14 16 15 13 14 14 12 13 13
1 4 7 5 1 4 6 1 5 4 5 7 6 7 8 11 16 16 16 17 16 15 16 18 17 13 7 4 6 7 5 4 4 5 5 7 9 12 12 13 14 14 14 15 16 15 12 12 15
4 4 4 3 3 0 3 7 3 7 7 5 6 7 7 10 16 20 18 15 16 18 19 19 19 18 16 13 12 10 8 7 8 8 7 7 4 7 7 10 11 12 14 14 14 15 14 13 13
5 3 4 8 3 2 3 7 2 4 6 6 6 6 6 6 14 18 16 16 16 17 17 20 23 24 24 24 24 22 22 20 19 16 16 16 14 11 6 6 7 7 8 10 12 12 11 11 11
6 4 4 6 1 1 1 8 9 6 5 7 7 6 5 6 8 14 16 16 17 18 19 20 21 26 28 28 27 27 28 27 25 23 21 17 16 15 14 14 13 12 9 7 5 6 8 11 12
5 5 6 3 3 2 6 6 12 5 6 7 6 6 6 6 6 15 18 18 19 20 21 22 22 20 21 24 26 27 29 28 27 25 23 24 22 20 18 17 16 16 14 12 9 8 9 10 12
3 4 6 5 3 4 7 8 11 2 2 3 8 7 6 4 5 13 19 21 23 22 24 25 25 25 24 26 26 26 28 30 27 25 24 22 21 20 20 20 20 17 14 15 14 12 9 7 12
5 8 4 7 3 3 2 6 8 3 3 6 6 5 5 7 7 5 13 18 21 24 23 26 27 25 24 23 25 25 26 25 27 28 28 27 25 23 22 21 20 18 17 19 18 17 14 11 9
6 8 7 5 3 4 1 5 5 4 4 4 7 7 7 6 4 6 10 15 18 20 22 25 27 29 29 27 26 28 31 31 28 28 27 28 28 28 27 26 25 24 22 20 19 16 15 13 14
7 5 6 4 3 1 3 2 7 6 6 7 6 5 4 3 3 5 9 13 14 18 20 23 26 28 27 28 28 30 33 30 26 25 26 26 26 26 26 26 26 28 27 26 24 22 20 18 15
6 5 6 4 3 2 9 8 4 5 4 4 5 8 9 7 6 4 8 11 14 16 19 21 24 26 25 26 27 28 28 26 25 23 24 23 24 24 24 23 24 23 23 24 22 21 21 21 20
4 5 1 3 2 6 1 2 5 2 2 1 11 10 8 7 7 5 7 9 12 14 16 18 21 23 23 24 25 24 24 23 22 21 20 20 20 22 22 21 21 21 21 20 20 20 19 20 18
7 7 5 6 3 4 2 6 4 2 4 4 7 9 8 7 7 8 11 11 11 12 13 15 17 20 19 20 21 20 19 20 20 19 18 18 18 17 17 17 18 19 18 19 19 20 20 19 19
5 5 4 4 2 2 4 4 3 1 3 4 8 10 9 8 8 8 13 13 13 12 12 13 15 16 16 17 17 17 16 16 16 15 14 15 14 15 15 16 16 17 19 21 22 23 23 22 23
4 6 3 2 2 5 4 4 5 6 7 6 8 10 9 8 8 7 13 14 14 14 13 12 12 14 14 14 13 13 12 12 12 11 11 11 10 11 13 15 17 19 21 23 24 27 28 29 29
3 2 3 3 4 5 3 5 5 6 7 11 11 10 10 9 9 7 16 20 18 16 14 13 13 13 13 11 11 10 9 8 8 8 8 9 10 11 13 16 19 22 24 25 26 27 28 28 30
3 7 7 6 7 3 2 12 1 3 9 8 8 8 8 8 8 10 19 20 19 20 18 17 15 14 13 12 11 9 7 5 3 4 7 9 11 13 16 20 24 26 28 29 30 30 29 30 32
Wind_Direction
347 337 352 44 57 67 4 324 242 349 25 279 134 106 150 162 140 199 331 184 358 179 183 183 183 185 185 186 185 180 174 164 153 144 137 131 121 118 120 113 131 97 57 76 64 49 51 61 69
348 348 46 76 83 66 282 268 218 269 280 323 101 66 43 351 249 290 14 182 73 181 186 188 189 191 191 193 195 194 187 179 170 165 158 146 127 118 114 127 137 69 94 66 40 38 42 41 41
350 21 78 90 105 147 181 232 260 300 352 41 69 76 146 277 313 301 336 189 183 182 188 195 195 197 198 196 198 197 194 193 191 188 183 169 152 133 127 154 152 128 86 343 23 2 5 360 352
20 23 39 75 83 203 189 263 240 338 20 39 48 47 316 229 306 330 25 148 230 195 198 202 203 204 206 204 203 206 204 206 206 199 194 175 181 166 129 146 150 235 298 309 317 318 329 333 331
42 53 56 74 315 287 274 302 180 40 13 344 344 321 292 24 32 63 76 64 256 216 202 208 209 211 212 210 209 213 214 217 216 214 199 191 201 215 197 180 187 197 290 328 321 301 311 325 326
42 90 63 140 260 292 314 330 138 70 325 334 26 358 278 339 104 88 140 71 304 207 206 208 211 216 218 214 219 221 220 221 220 219 209 206 231 234 218 222 211 194 256 301 326 315 312 325 326
104 75 167 171 244 343 283 321 91 159 14 293 215 357 269 53 357 269 212 18 349 261 237 229 225 224 225 224 223 225 229 230 228 225 219 222 229 244 241 244 233 241 227 258 301 303 312 323 315
101 91 113 227 209 192 306 358 158 138 227 307 263 254 308 359 1 8 3 345 345 308 265 245 242 238 235 235 236 236 235 232 232 235 231 235 238 247 245 243 262 292 270 274 286 281 307 312 288
114 63 164 207 159 211 341 42 196 320 245 339 301 275 12 348 1 27 12 341 332 321 295 271 255 245 243 240 238 237 238 237 236 239 233 237 241 245 245 253 264 281 291 289 289 291 296 305 273
80 106 216 217 202 202 317 66 328 12 356 335 326 17 12 27 35 39 27 11 359 346 306 269 249 249 247 242 243 241 236 235 233 242 243 246 254 249 260 251 260 261 281 291 287 296 304 312 276
124 167 211 262 234 85 323 304 126 318 337 205 299 338 24 32 38 34 24 15 1 355 352 328 280 249 239 242 237 236 235 237 234 242 243 245 248 249 255 251 248 260 275 286 296 299 308 310 286
61 216 196 273 303 25 261 58 257 207 196 96 82 77 52 32 32 26 16 8 2 357 353 346 322 282 243 235 234 232 232 235 238 239 245 242 246 246 251 245 252 252 261 275 293 299 301 302 295
161 290 275 290 276 255 323 234 227 255 122 107 80 57 45 34 24 23 16 12 6 4 358 351 340 318 271 233 232 232 236 234 243 248 241 248 246 247 253 260 258 257 263 273 289 291 290 292 291
269 314 299 290 257 258 226 187 155 7 111 75 64 58 42 36 20 20 19 14 14 10 8 1 356 342 307 235 223 228 236 248 236 245 250 250 247 251 252 253 266 253 258 265 273 278 291 294 291
70 339 326 266 292 247 167 253 215 162 122 89 70 56 48 35 36 30 17 13 15 28 31 28 24 24 37 134 194 210 218 254 286 297 304 283 260 249 248 246 254 263 262 268 268 261 267 289 295
24 57 360 287 169 329 137 264 83 180 140 103 70 49 45 34 26 21 21 27 26 27 37 54 55 62 74 96 113 115 108 97 74 61 47 23 329 291 276 265 262 262 256 254 256 259 261 269 284
3 244 208 311 202 123 152 262 170 142 106 123 84 55 43 28 30 31 30 32 37 44 54 60 67 76 88 95 101 102 97 86 78 73 64 55 50 41 29 14 359 334 307 279 262 254 257 277 292
199 217 242 235 6 99 204 270 289 170 153 144 125 108 79 52 24 33 41 48 50 55 62 70 81 86 92 98 99 95 92 83 75 65 61 59 52 52 52 46 39 34 33 24 352 310 300 304 308
151 177 221 252 237 157 238 246 263 291 109 139 147 123 94 65 41 59 56 60 64 68 71 75 81 88 101 97 91 86 78 78 73 68 62 57 54 52 50 51 47 40 34 29 19 3 349 336 335
127 177 248 289 241 164 269 262 256 320 72 197 158 149 130 108 47 43 57 62 64 62 68 71 79 84 90 97 96 91 84 76 72 68 65 61 55 50 50 48 45 44 39 35 28 22 9 356 360
200 212 206 221 347 254 314 273 251 71 77 62 83 126 143 146 123 66 62 64 67 67 68 75 81 87 93 99 104 100 92 81 72 65 64 62 61 57 53 48 46 44 43 40 32 24 15 1 355
220 195 189 217 113 241 162 274 290 165 116 133 163 170 164 146 115 103 94 80 76 75 79 83 86 89 92 97 97 94 91 87 82 78 74 69 66 63 58 56 51 47 42 40 37 33 30 19 11
227 139 166 161 172 102 265 325 257 144 215 200 198 173 162 160 133 120 100 93 89 91 90 91 92 92 93 93 94 94 95 95 92 86 80 73 69 64 61 58 54 51 46 46 43 37 34 32 27
131 74 47 48 105 245 223 188 262 195 210 145 162 175 171 168 154 138 116 109 99 97 98 98 96 94 94 94 95 96 97 95 89 81 73 67 64 60 56 52 50 49 45 38 35 40 39 35 31
94 96 325 331 328 235 15 169 257 173 66 225 186 175 174 163 161 173 148 131 120 113 109 105 102 100 100 97 94 94 95 92 87 79 72 65 58 52 49 43 41 38 33 31 20 23 26 22 19
177 161 165 226 224 275 350 234 245 337 341 298 169 157 165 170 169 187 179 160 152 142 133 124 116 111 106 102 99 96 90 83 78 71 65 60 54 45 38 34 30 25 18 12 8 4 7 1 357
187 180 160 103 102 29 211 301 271 78 61 88 136 153 179 190 186 192 191 182 172 164 156 147 132 121 116 108 104 96 89 82 74 68 58 48 38 28 21 16 14 8 3 359 354 353 352 346 343
174 163 96 17 270 259 249 251 233 245 216 170 171 186 191 193 195 200 199 195 191 185 175 161 149 139 130 122 113 104 94 86 75 62 51 39 26 13 7 2 359 356 354 350 348 346 344 340 338
138 184 75 135 167 196 274 253 202 222 184 193 196 200 195 193 198 199 203 205 199 191 183 174 168 161 151 143 131 120 107 95 79 60 44 26 10 2 356 353 350 349 347 346 344 343 340 335 330
179 191 166 200 225 244 149 263 37 298 192 186 193 197 198 202 198 201 210 207 201 197 192 189 183 177 171 165 160 156 145 121 78 41 18 5 357 351 349 348 346 346 345 344 343 340 337 333 327